TimePDT,TemperatureF,Dew PointF,Humidity,Sea Level PressureIn,VisibilityMPH,Wind Direction,Wind SpeedMPH,Gust SpeedMPH,PrecipitationIn,Events,Conditions,WindDirDegrees,DateUTC
12:22 AM,33.8,32.0,93,29.59,0.8,North,5.8,-,0.05,Snow,Light Snow,350,2013-10-28 07:22:00
12:52 AM,33.1,32.0,96,29.47,0.5,Calm,Calm,-,0.12,Fog-Snow,Snow,0,2013-10-28 07:52:00
1:07 AM,33.8,33.8,100,29.57,1.0,Calm,Calm,-,0.02,Snow,Light Snow,0,2013-10-28 08:07:00
1:12 AM,33.8,32.0,93,29.57,2.0,Calm,Calm,-,0.02,Snow,Light Snow,0,2013-10-28 08:12:00
1:20 AM,33.8,32.0,93,29.57,6.0,Calm,Calm,-,0.03,Snow,Light Snow,0,2013-10-28 08:20:00
1:33 AM,33.8,32.0,93,29.57,5.0,Calm,Calm,-,0.03,,Overcast,0,2013-10-28 08:33:00
1:52 AM,33.1,32.0,96,29.47,10.0,Calm,Calm,-,0.03,,Overcast,0,2013-10-28 08:52:00
2:06 AM,33.8,32.0,93,29.58,10.0,Calm,Calm,-,N/A,,Overcast,0,2013-10-28 09:06:00
2:26 AM,33.8,32.0,93,29.59,1.5,SW,4.6,-,0.00,Snow,Light Snow,230,2013-10-28 09:26:00
2:30 AM,32.0,32.0,100,29.59,0.8,SSW,4.6,-,0.00,Snow,Light Snow,210,2013-10-28 09:30:00
2:40 AM,33.8,32.0,93,29.59,1.5,SW,4.6,-,0.00,Snow,Light Snow,230,2013-10-28 09:40:00
2:52 AM,32.0,32.0,100,29.49,0.8,SW,4.6,-,0.00,Snow,Light Snow,230,2013-10-28 09:52:00
3:19 AM,32.0,30.2,93,29.58,0.2,West,5.8,-,0.01,Fog-Snow,Light Snow,260,2013-10-28 10:19:00
3:42 AM,32.0,30.2,93,29.58,0.2,West,6.9,-,0.01,Fog-Snow,Light Snow,270,2013-10-28 10:42:00
3:52 AM,32.0,30.9,96,29.48,0.2,West,4.6,-,0.01,Fog-Snow,Light Snow,260,2013-10-28 10:52:00
4:33 AM,32.0,30.2,93,29.58,0.2,WNW,3.5,-,0.01,Fog-Snow,Light Snow,290,2013-10-28 11:33:00
4:52 AM,32.0,32.0,100,29.49,0.5,WNW,3.5,-,0.01,Fog-Snow,Light Snow,300,2013-10-28 11:52:00
5:11 AM,32.0,30.2,93,29.59,0.2,West,4.6,-,0.01,Fog-Snow,Light Snow,260,2013-10-28 12:11:00
5:40 AM,32.0,32.0,100,29.60,0.5,WSW,5.8,-,0.02,Fog-Snow,Snow,250,2013-10-28 12:40:00
5:52 AM,32.0,32.0,100,29.53,0.5,WSW,3.5,-,0.03,Fog-Snow,Snow,240,2013-10-28 12:52:00
6:43 AM,32.0,30.2,93,29.61,0.2,West,5.8,-,0.04,Fog-Snow,Light Snow,260,2013-10-28 13:43:00
6:52 AM,32.0,30.9,96,29.57,0.2,WSW,4.6,-,0.04,Fog-Snow,Light Snow,250,2013-10-28 13:52:00
7:01 AM,32.0,32.0,100,29.61,0.2,West,4.6,-,0.00,Fog-Snow,Light Snow,260,2013-10-28 14:01:00
7:52 AM,32.0,32.0,100,29.60,0.2,West,4.6,-,0.00,Fog,Fog,270,2013-10-28 14:52:00
8:45 AM,32.0,32.0,100,29.65,0.2,Calm,Calm,-,0.01,Fog,Fog,0,2013-10-28 15:45:00
8:52 AM,32.0,32.0,100,29.63,0.2,Calm,Calm,-,0.01,Fog-Snow,Light Snow,0,2013-10-28 15:52:00
9:06 AM,32.0,32.0,100,29.65,1.0,South,4.6,-,0.01,Snow,Light Snow,180,2013-10-28 16:06:00
9:18 AM,32.0,32.0,100,29.66,0.2,SW,4.6,-,0.01,Fog-Snow,Light Snow,230,2013-10-28 16:18:00
9:45 AM,32.0,32.0,100,29.67,0.8,SSW,3.5,-,0.01,Snow,Light Snow,200,2013-10-28 16:45:00
9:52 AM,32.0,32.0,100,29.67,1.2,South,3.5,-,0.01,Snow,Light Snow,190,2013-10-28 16:52:00
9:55 AM,32.0,32.0,100,29.67,3.0,SSW,3.5,-,0.00,,Overcast,200,2013-10-28 16:55:00
10:05 AM,32.0,32.0,100,29.67,1.8,Calm,Calm,-,0.01,Snow,Light Snow,0,2013-10-28 17:05:00
10:07 AM,33.8,32.0,93,29.67,1.2,Calm,Calm,-,0.01,Snow,Light Snow,0,2013-10-28 17:07:00
10:13 AM,32.0,32.0,100,29.67,0.5,SSW,4.6,-,0.01,Fog-Snow,Light Snow,210,2013-10-28 17:13:00
10:31 AM,32.0,32.0,100,29.67,1.5,SSW,3.5,-,0.02,Snow,Light Snow,200,2013-10-28 17:31:00
10:35 AM,32.0,32.0,100,29.67,3.0,South,3.5,-,0.02,Snow,Light Snow,190,2013-10-28 17:35:00
10:42 AM,33.8,33.8,100,29.68,5.0,Calm,Calm,-,0.02,,Overcast,0,2013-10-28 17:42:00
10:50 AM,33.8,32.0,93,29.68,5.0,Calm,Calm,-,0.02,Snow,Light Snow,0,2013-10-28 17:50:00
10:52 AM,33.1,32.0,96,29.68,4.0,South,3.5,-,0.02,Snow,Light Snow,180,2013-10-28 17:52:00
10:57 AM,33.8,32.0,93,29.68,1.8,South,4.6,-,0.00,Snow,Light Snow,190,2013-10-28 17:57:00
11:06 AM,33.8,32.0,93,29.68,3.0,South,5.8,-,0.00,,Overcast,190,2013-10-28 18:06:00
11:33 AM,33.8,32.0,93,29.69,1.8,SSE,4.6,-,0.00,,Overcast,150,2013-10-28 18:33:00
11:36 AM,33.8,32.0,93,29.69,0.8,SSE,4.6,-,0.00,,Overcast,160,2013-10-28 18:36:00
11:47 AM,33.8,32.0,93,29.69,0.2,South,6.9,-,0.00,Fog-Snow,Light Snow,180,2013-10-28 18:47:00
11:52 AM,33.1,32.0,96,29.70,0.5,South,5.8,-,0.00,Fog-Snow,Light Snow,190,2013-10-28 18:52:00
12:05 PM,33.8,33.8,100,29.69,0.2,South,5.8,-,0.01,Fog-Snow,Light Snow,180,2013-10-28 19:05:00
12:29 PM,33.8,32.0,93,29.69,0.5,SSW,5.8,-,0.01,Fog-Snow,Light Snow,200,2013-10-28 19:29:00
12:52 PM,33.1,33.1,100,29.71,0.2,South,6.9,-,0.04,Fog-Snow,Snow,180,2013-10-28 19:52:00
1:52 PM,33.1,32.0,96,29.72,0.2,South,6.9,-,0.05,Fog-Snow,Light Snow,180,2013-10-28 20:52:00
2:52 PM,33.1,33.1,100,29.72,0.2,South,6.9,-,0.03,Fog-Snow,Light Snow,180,2013-10-28 21:52:00
3:52 PM,33.1,32.0,96,29.73,0.2,South,8.1,18.4,0.04,Fog-Snow,Snow,190,2013-10-28 22:52:00
4:52 PM,33.1,32.0,96,29.75,0.2,South,5.8,-,0.07,Fog-Snow,Snow,190,2013-10-28 23:52:00
5:52 PM,32.0,32.0,100,29.78,0.5,South,5.8,-,0.05,Fog-Snow,Light Snow,190,2013-10-29 00:52:00
6:14 PM,32.0,32.0,100,29.76,1.0,South,3.5,-,0.01,Snow,Light Snow,180,2013-10-29 01:14:00
6:22 PM,32.0,32.0,100,29.76,0.5,SSE,3.5,-,0.02,Fog-Snow,Light Snow,150,2013-10-29 01:22:00
6:52 PM,32.0,32.0,100,29.79,0.2,SSE,3.5,-,0.04,Fog-Snow,Light Snow,160,2013-10-29 01:52:00
7:15 PM,32.0,32.0,100,29.77,0.5,SE,3.5,-,0.01,Fog-Snow,Light Snow,130,2013-10-29 02:15:00
7:42 PM,33.8,32.0,93,29.78,0.2,SSE,4.6,-,0.02,Fog-Snow,Light Snow,150,2013-10-29 02:42:00
7:52 PM,33.1,32.0,96,29.80,0.2,Calm,Calm,-,0.02,Fog-Snow,Light Snow,0,2013-10-29 02:52:00
8:07 PM,33.8,32.0,93,29.78,0.2,SE,4.6,-,0.00,Fog-Snow,Light Snow,140,2013-10-29 03:07:00
8:37 PM,33.8,33.8,100,29.79,0.5,Calm,Calm,-,0.01,Fog,Fog,0,2013-10-29 03:37:00
8:47 PM,33.8,33.8,100,29.80,1.5,Calm,Calm,-,0.01,,Overcast,0,2013-10-29 03:47:00
8:48 PM,33.1,33.1,100,29.82,1.5,Calm,Calm,-,0.01,,Overcast,0,2013-10-29 03:48:00
8:56 PM,33.8,32.0,93,29.80,3.0,ESE,3.5,-,0.00,Snow,Light Snow,110,2013-10-29 03:56:00
9:03 PM,33.8,32.0,93,29.80,4.0,Calm,Calm,-,0.00,Snow,Light Snow,0,2013-10-29 04:03:00
9:52 PM,33.1,32.0,96,29.83,4.0,SE,4.6,-,0.01,Snow,Light Snow,140,2013-10-29 04:52:00
10:14 PM,33.8,32.0,93,29.82,4.0,SE,5.8,-,0.00,Snow,Light Snow,140,2013-10-29 05:14:00
10:38 PM,33.8,33.8,100,29.82,4.0,SSE,4.6,-,0.01,Snow,Light Snow,150,2013-10-29 05:38:00
10:46 PM,33.8,32.0,93,29.82,1.8,SSE,5.8,-,0.01,Snow,Light Snow,160,2013-10-29 05:46:00
10:52 PM,33.1,33.1,100,29.85,0.8,SSE,5.8,-,0.02,Rain,Light Rain,150,2013-10-29 05:52:00
11:10 PM,33.8,33.8,100,29.84,0.2,SSE,6.9,-,0.00,Fog-Rain,Light Rain,160,2013-10-29 06:10:00
11:21 PM,33.8,33.8,100,29.84,0.2,SSE,6.9,-,0.01,Fog-Rain,Light Rain,160,2013-10-29 06:21:00
11:52 PM,34.0,33.1,96,29.85,0.2,South,9.2,-,0.01,Fog,Fog,170,2013-10-29 06:52:00